Terug naar catalogus

STARLINK-5433

ActiefCommunicatieVLEO
NORAD 54793·PAYLOAD·🇺🇸 United States

Gelanceerd Dec 17, 2022 vanaf Cape Canaveral Space Force Station

Loading…

Volgende Passages (komende 24 uur)

TLE

VersSource: CelesTrak SupGP

Epoch: Sep 15, 2026, 03:07 UTC

1 54793C 22175AM  26258.13034722 -.00035266  00000+0 -10090-2 0  2583
2 54793  53.1580 242.7324 0001249  91.1015 332.2409 15.35414391    19

Volg STARLINK-5433 in realtime met AllMySat

Download on the App Store